Theta_e
345 347 351 351 353 353 354 354 354 354 353 353 353 353 353 353 352 352 351 351 350 350 349 349 349 349 349 348 349 348 348 348 348 349 350 350 350 349 348 348 347 346 346 346 346 346 346 346 346 346 344 343 342 341 341 344 345 346 345 346 347 348 348 348 347 348 348 348 348 348 347 349 349 349 350 351 351 350 349 350 350 347 348 349 350
344 348 351 353 352 353 353 354 354 354 353 353 353 353 353 352 352 351 351 351 350 350 349 349 349 348 350 350 349 349 349 348 349 349 349 350 350 349 348 348 347 347 348 347 347 346 346 344 344 343 343 343 341 340 338 338 340 342 343 344 345 346 347 347 347 347 347 348 348 348 347 346 347 348 349 350 351 350 349 349 350 348 347 350 351
346 348 351 353 351 353 353 353 353 354 353 353 353 352 352 352 351 351 350 350 350 349 349 349 349 350 350 349 349 349 348 348 349 349 349 349 349 348 349 348 347 347 346 346 346 345 345 345 345 344 343 342 341 339 339 338 337 338 341 342 343 344 346 347 347 347 346 347 346 347 345 346 346 346 348 348 349 350 348 348 349 349 348 349 349
345 347 349 351 348 352 353 353 352 353 353 353 353 353 352 352 351 351 350 350 350 349 348 349 349 349 349 348 348 348 348 348 348 348 348 348 349 349 348 347 347 346 346 347 346 346 345 345 342 341 340 339 339 338 338 337 337 337 337 339 341 341 343 346 346 346 346 345 348 345 345 345 345 346 347 347 347 348 347 347 348 348 348 349 349
345 347 348 351 354 352 353 353 353 353 353 353 352 352 352 352 352 351 350 350 349 349 349 348 348 348 348 348 347 348 348 348 348 348 348 348 348 348 348 348 347 347 347 347 346 345 345 341 338 337 335 335 335 336 337 337 337 337 337 338 340 341 341 344 346 345 346 345 346 345 344 345 345 345 347 347 347 345 345 345 346 347 346 347 347
344 347 349 348 351 354 351 353 353 353 353 353 352 352 352 352 351 351 350 350 349 349 349 348 347 347 348 347 347 347 347 348 347 347 347 347 348 348 348 347 348 347 347 346 346 345 343 339 338 337 335 333 333 334 335 336 337 338 338 338 340 341 342 343 345 344 343 342 340 345 343 345 345 344 345 347 347 345 345 344 345 345 345 345 345
345 347 348 349 351 351 348 353 354 354 353 352 352 352 352 351 351 350 350 350 349 349 348 348 347 347 347 347 347 347 347 347 347 347 346 346 346 347 348 346 347 346 346 346 345 345 342 340 339 338 336 333 332 332 334 335 337 339 339 338 340 341 342 342 341 340 341 340 342 341 341 343 344 344 347 347 346 345 344 344 344 344 344 344 344
347 348 349 348 349 350 348 353 352 353 352 352 352 351 351 351 351 350 350 349 349 349 349 347 347 347 347 346 347 347 347 346 346 347 346 346 346 347 347 346 346 345 346 346 345 344 343 340 340 338 336 333 332 332 333 335 337 339 339 339 339 339 339 340 339 340 339 341 339 341 340 342 344 345 345 346 345 345 344 344 343 343 343 342 341
344 347 347 348 352 347 349 350 353 352 353 351 351 351 351 350 350 350 350 349 349 348 348 348 346 346 346 347 347 347 347 347 346 346 346 345 345 346 347 346 346 345 344 345 344 344 342 341 340 337 335 333 331 331 332 334 337 337 338 338 338 338 337 337 338 338 342 339 340 340 340 341 343 344 345 345 345 346 345 343 342 342 342 341 340
342 347 347 346 354 343 349 350 351 352 352 351 352 350 350 350 350 350 349 349 349 348 348 347 346 345 345 347 346 346 346 346 347 346 345 346 346 346 346 346 345 344 343 343 344 343 342 341 339 336 334 332 330 330 332 334 336 336 337 337 337 337 336 337 338 338 338 339 338 339 339 345 341 343 344 344 345 345 344 342 342 342 341 341 341
342 345 346 348 354 343 349 352 352 351 350 351 352 351 350 350 350 349 349 347 349 348 347 347 346 345 345 346 346 346 346 346 346 346 346 346 346 346 346 345 344 343 343 343 343 343 341 341 338 335 334 331 329 329 330 333 335 335 336 337 336 336 337 338 335 339 338 337 337 337 337 342 341 342 344 344 344 344 341 342 342 342 342 341 340
342 346 347 351 345 342 347 349 351 352 350 351 351 349 349 349 349 349 349 348 348 347 347 347 346 345 345 346 346 345 345 346 345 345 345 345 346 346 345 344 343 343 343 343 343 342 342 341 337 335 332 329 328 328 329 331 334 334 335 336 336 337 336 335 337 335 336 336 337 340 338 339 340 342 343 343 343 342 340 340 341 341 341 341 341
343 344 346 349 353 339 344 347 348 351 351 351 349 349 350 348 349 349 349 348 348 347 346 347 346 346 345 345 346 345 347 346 345 345 345 345 345 344 345 344 343 343 342 341 341 342 342 339 337 334 331 328 327 327 329 330 332 333 334 335 335 335 335 331 335 335 335 336 336 338 337 339 338 342 339 341 341 340 339 339 338 339 339 339 339
341 343 345 344 350 342 337 340 344 349 351 350 349 349 349 348 347 348 349 348 348 347 346 346 346 346 346 346 346 345 346 346 344 344 343 343 344 343 344 343 343 342 341 340 340 340 340 338 336 334 331 328 327 327 327 329 331 331 333 333 332 332 330 331 333 334 334 335 336 337 336 337 337 339 338 338 338 337 337 338 338 338 336 336 336
340 343 344 343 347 350 337 336 340 343 347 350 350 349 349 348 349 348 348 348 348 347 346 346 346 346 345 346 345 346 345 345 345 344 342 341 343 343 343 343 342 340 340 340 340 340 339 336 335 333 330 328 326 326 326 328 329 331 331 331 330 330 328 332 334 333 333 334 334 336 336 336 341 336 336 337 336 335 335 335 335 336 335 333 334
339 340 340 340 342 348 348 341 335 335 341 345 346 347 348 348 348 348 348 347 347 347 347 346 346 346 345 346 344 345 345 344 345 344 343 342 341 341 342 342 341 341 339 338 340 339 336 335 333 331 329 328 327 326 325 327 329 330 330 329 328 328 326 324 333 333 332 332 334 334 334 336 339 336 335 335 334 335 334 333 334 333 332 332 332
338 340 340 339 341 343 344 347 344 331 334 336 341 342 344 347 348 348 348 347 348 348 347 348 348 347 347 347 346 345 345 346 345 342 342 341 341 341 340 341 340 339 339 340 339 337 336 334 332 330 329 328 327 325 325 327 328 329 328 327 327 327 325 322 333 333 332 332 335 334 334 334 337 334 334 334 334 333 334 333 332 330 330 330 331
337 339 338 339 340 342 343 345 350 348 348 341 334 338 341 345 345 345 345 346 347 348 348 348 347 347 346 344 342 343 345 344 344 343 342 341 341 339 341 339 339 339 338 338 337 336 334 333 331 330 329 327 326 325 324 325 327 327 326 325 324 324 324 321 332 332 331 332 332 332 332 334 335 335 333 333 333 333 332 331 331 329 329 327 329
329 331 334 335 335 339 341 343 345 345 346 346 347 348 335 340 342 341 340 344 345 345 345 343 342 344 342 339 338 337 336 336 338 340 340 338 336 334 340 341 338 338 338 337 336 336 334 333 331 330 328 327 326 323 322 323 324 324 324 324 322 320 317 323 328 330 331 331 331 331 331 333 334 334 333 332 332 332 332 330 330 327 329 327 329
323 322 322 324 329 334 337 340 342 343 345 345 346 347 336 333 336 337 338 339 341 342 341 338 336 335 334 333 330 333 329 335 326 336 332 337 335 335 335 338 338 338 338 337 336 335 335 333 332 330 327 325 323 320 318 319 320 321 321 321 321 315 326 324 326 327 328 327 328 328 328 333 332 333 333 332 332 332 330 330 330 328 328 329 328
320 320 320 320 323 325 330 334 339 341 343 344 344 346 348 331 332 332 333 336 338 337 337 331 327 324 326 323 324 346 345 345 340 343 326 340 329 328 334 338 339 339 338 337 336 335 334 333 332 330 326 323 320 317 317 316 317 319 318 320 313 324 320 322 323 323 322 325 327 323 327 331 332 332 331 331 331 330 329 329 329 330 328 328 327
318 319 320 319 320 322 323 328 335 339 342 344 344 345 348 341 347 347 346 340 333 330 337 346 338 346 328 336 343 342 341 342 343 339 343 341 334 325 330 335 338 337 337 337 336 335 335 334 332 329 326 324 320 322 318 313 313 317 317 311 324 315 318 319 321 321 322 319 325 321 325 328 331 331 331 330 329 329 329 329 328 327 328 327 328
316 317 319 319 320 321 322 321 328 334 339 342 343 344 344 345 346 345 346 337 341 343 345 345 345 345 344 344 340 342 342 341 343 340 340 330 338 323 328 332 334 334 336 337 336 336 335 334 332 328 325 324 329 326 320 320 319 309 309 323 313 315 316 317 317 318 320 318 321 319 321 326 329 331 332 329 330 329 328 328 327 327 327 326 326
315 315 317 319 319 320 322 322 323 333 335 340 342 341 341 343 344 344 344 344 346 345 345 344 345 345 344 343 341 342 342 341 328 327 334 341 336 321 323 327 329 329 330 334 333 335 335 334 330 327 325 327 328 325 323 319 317 314 313 309 310 311 314 314 314 316 315 319 314 316 316 321 326 329 332 333 334 330 328 328 327 327 327 326 326
314 317 317 317 320 320 321 323 322 329 336 338 340 341 341 342 342 343 343 342 345 344 343 343 343 345 346 343 343 343 343 342 342 342 341 339 340 340 338 338 336 336 327 336 335 337 333 333 330 326 330 329 328 326 325 323 321 319 315 312 309 310 311 313 312 312 315 314 312 315 315 316 319 325 328 330 333 334 334 327 327 327 325 326 326
315 315 315 317 319 319 320 321 322 325 334 337 338 340 341 341 341 341 342 341 342 343 342 343 342 342 342 341 341 343 341 341 341 341 338 339 338 337 338 338 337 337 333 335 336 336 334 335 332 331 330 329 327 326 323 322 322 320 317 314 312 310 311 310 310 312 312 314 314 313 313 315 315 317 322 326 328 331 333 334 328 327 326 327 326
313 313 316 317 319 318 321 322 321 324 333 336 338 339 339 340 340 343 340 338 340 339 341 342 341 341 341 341 341 340 340 339 339 341 338 338 337 336 335 336 336 336 336 337 336 334 335 333 331 331 330 328 326 324 322 320 320 319 317 316 314 311 310 310 309 309 312 312 313 310 312 313 314 315 315 319 322 326 331 333 335 330 327 327 327
312 314 315 316 317 317 321 321 321 325 332 334 335 337 339 339 340 339 339 337 337 338 338 338 341 341 338 338 336 340 339 337 338 340 338 339 337 337 336 335 335 336 335 335 333 333 333 333 332 331 329 328 325 324 322 320 318 319 318 316 316 314 312 310 310 311 311 312 315 311 313 312 313 315 314 314 317 320 325 330 333 336 335 329 327
310 312 313 314 315 316 323 322 322 327 330 332 334 335 337 338 336 335 333 329 333 332 331 331 331 332 334 334 335 337 338 338 337 338 340 339 338 335 334 334 333 334 334 333 332 332 332 330 329 329 328 328 326 325 324 323 323 321 320 318 318 316 315 314 314 314 315 314 313 313 312 311 312 314 314 314 314 316 319 322 328 333 333 333 331
309 310 310 311 313 319 324 325 326 329 332 331 333 333 333 330 330 327 327 328 329 329 329 329 328 328 328 330 332 334 335 336 335 332 331 333 335 333 332 332 330 330 331 329 326 328 328 329 329 327 326 327 326 324 324 324 322 321 320 319 318 316 317 316 316 315 318 317 315 313 308 311 310 313 312 314 314 314 316 319 321 326 331 332 332
309 308 308 310 314 320 322 324 325 326 327 326 326 325 326 324 323 322 323 324 324 325 325 324 324 324 325 327 328 329 331 331 331 330 329 328 326 325 325 326 326 326 327 326 324 324 324 322 321 320 320 321 323 323 322 323 323 321 320 319 318 318 317 317 317 317 316 316 316 315 319 308 311 310 312 311 313 313 314 316 320 322 324 329 332
306 306 307 310 315 319 320 320 321 322 321 320 319 319 319 321 320 318 317 318 319 319 320 320 319 319 322 323 324 324 325 327 328 327 327 324 323 323 322 322 322 322 323 324 323 322 321 320 318 319 319 320 321 322 322 322 322 322 321 319 319 318 318 318 318 317 317 316 316 315 315 314 310 311 311 311 311 312 312 314 316 318 321 325 327
305 306 307 311 314 317 317 316 316 316 316 315 315 315 315 316 316 315 314 315 314 315 315 316 316 317 319 321 321 321 322 323 324 325 324 323 322 321 320 320 321 321 321 321 321 320 320 319 319 318 318 319 319 319 321 321 321 321 321 320 319 319 319 319 319 318 317 317 314 313 316 314 311 311 310 311 311 310 311 312 313 316 319 322 324
303 306 308 309 313 315 315 314 313 311 311 311 311 309 309 310 311 311 310 309 309 311 311 311 312 314 315 315 318 319 321 321 321 320 321 320 319 319 319 319 320 321 322 322 320 320 320 319 319 318 315 317 316 316 317 317 317 319 320 321 320 320 319 319 318 318 317 316 315 314 314 314 311 315 313 311 313 313 311 311 312 312 314 316 319
303 305 306 308 311 311 311 309 309 309 308 307 307 306 306 306 306 307 307 307 307 307 307 307 308 309 310 310 311 313 314 317 319 319 319 318 317 316 316 317 318 319 320 321 322 321 319 318 319 319 317 317 317 316 316 316 316 317 319 320 319 319 318 318 318 318 316 315 313 314 313 311 310 313 310 307 309 310 312 311 311 312 311 312 312
302 303 305 308 309 309 308 307 307 306 306 305 305 305 304 304 304 304 305 306 305 305 304 305 305 306 306 306 307 309 311 311 313 315 314 314 313 313 313 314 314 315 315 315 316 317 315 314 313 316 317 314 313 312 313 312 313 313 316 318 318 318 317 317 317 316 315 313 312 311 310 309 309 307 305 309 307 310 309 311 310 310 310 310 312
302 303 303 306 307 308 307 306 304 304 303 304 304 304 303 302 301 301 302 303 303 302 302 303 303 303 304 304 304 305 308 308 308 310 311 311 310 309 309 310 311 310 310 310 310 312 313 311 310 311 312 310 309 309 310 310 309 309 310 312 314 315 315 315 314 313 314 312 310 308 308 309 308 305 306 306 307 306 308 309 310 310 310 311 311
302 303 304 305 305 306 306 305 304 304 304 303 302 302 301 301 300 299 300 299 300 300 300 301 301 301 302 302 303 303 305 306 307 308 308 308 308 308 308 308 308 308 309 309 308 309 310 310 307 307 307 307 306 306 306 307 309 309 309 310 312 313 313 313 313 308 309 307 307 308 308 308 307 307 306 306 306 305 306 307 308 310 308 310 312
301 303 304 305 306 306 306 304 304 304 304 303 302 302 301 300 300 300 299 299 298 299 299 299 299 299 300 301 302 302 303 305 306 306 307 307 306 306 306 307 307 307 306 306 307 308 309 309 309 309 308 306 305 305 305 306 308 308 309 310 312 312 313 311 311 309 307 309 309 308 312 307 307 307 306 306 305 306 307 307 306 306 307 309 310
301 303 304 305 305 305 305 305 305 304 304 304 303 302 301 300 299 299 298 297 297 297 297 297 298 297 298 299 299 300 300 301 303 304 304 305 305 304 304 305 305 305 304 303 303 304 305 308 307 307 307 305 304 304 304 303 307 308 308 310 311 312 310 309 308 307 309 311 310 308 305 308 306 306 306 306 306 307 306 306 304 305 305 306 308
301 302 303 302 303 304 305 303 305 306 306 305 303 301 299 297 297 296 295 296 296 296 296 296 296 296 297 297 297 297 298 298 299 300 301 301 301 302 302 302 302 302 301 301 302 302 303 304 306 305 303 301 301 302 302 303 304 302 305 308 309 311 308 307 305 306 306 307 307 305 306 306 305 305 306 306 307 307 306 305 305 305 305 306 305
299 301 301 302 303 303 303 303 303 303 303 302 301 300 300 299 297 296 296 296 296 295 294 294 295 295 296 296 296 296 296 296 296 298 297 297 297 297 298 298 298 298 298 298 298 299 299 300 303 303 303 301 298 300 300 301 299 298 299 302 307 307 306 305 304 302 305 306 306 308 306 305 305 305 305 304 305 304 304 304 305 304 304 304 304
299 299 300 301 302 302 302 302 302 302 301 301 300 298 298 298 297 295 295 293 294 294 294 294 294 294 294 294 295 295 295 295 295 296 296 296 295 295 295 295 295 295 294 294 295 295 296 296 298 299 299 299 298 299 297 298 296 298 301 300 299 300 303 303 300 300 304 304 305 305 304 304 304 303 301 300 300 301 303 303 303 304 304 303 303
298 298 299 300 300 301 301 300 299 299 298 297 297 297 296 296 296 296 295 294 292 293 293 293 293 293 292 293 294 294 294 294 294 294 295 295 295 294 294 295 294 295 294 292 293 293 294 294 294 295 296 292 293 295 296 295 295 295 292 295 297 299 296 295 293 298 302 298 303 300 301 302 302 301 299 298 299 300 300 302 302 301 301 302 303
297 297 298 298 299 300 300 299 298 297 296 296 296 296 295 295 294 294 294 293 293 292 292 291 291 291 292 292 292 293 293 293 293 294 293 294 294 294 294 293 293 294 294 292 292 292 293 293 294 293 293 292 290 292 294 294 294 295 293 292 292 291 289 289 292 296 295 295 299 296 298 300 300 297 296 297 300 299 298 299 299 299 299 300 301
296 296 297 298 299 299 298 298 298 297 296 296 296 296 295 294 294 293 292 291 290 290 289 289 289 290 290 291 292 292 292 292 292 293 293 293 293 293 293 292 292 291 292 292 292 291 292 292 293 292 292 293 291 290 290 292 293 293 294 293 292 288 287 290 290 286 292 295 295 295 295 298 296 294 294 296 297 295 297 298 297 297 298 298 300
295 296 296 297 298 298 298 297 297 296 297 297 297 297 297 296 295 294 293 291 289 290 291 291 290 290 291 290 290 291 292 291 292 292 292 292 292 292 292 291 291 291 291 290 290 290 291 291 292 292 291 291 292 289 289 289 290 291 292 292 292 292 292 290 286 288 284 290 292 292 295 295 293 292 293 295 293 293 295 294 293 295 296 297 299
294 294 295 296 296 296 296 296 295 295 296 296 297 297 296 295 294 293 292 291 290 289 290 290 291 291 290 289 290 290 291 291 291 291 291 291 291 291 291 291 290 289 289 289 289 290 291 291 291 291 291 290 290 288 288 289 287 287 290 289 290 291 291 292 291 287 285 282 284 291 295 291 291 291 293 293 292 293 293 293 292 293 295 296 298
294 294 294 294 295 295 295 294 294 294 295 296 296 296 295 294 293 292 291 291 291 291 291 291 290 291 290 290 289 289 289 290 290 291 291 291 290 290 290 289 289 289 289 290 289 290 289 289 289 289 289 289 289 289 288 287 288 287 287 288 288 288 288 289 289 288 284 282 283 284 285 288 288 291 292 291 292 293 293 292 292 293 294 295 298
292 293 293 294 294 294 293 293 293 294 294 295 295 295 294 294 293 292 291 290 291 291 291 290 290 290 289 289 289 289 289 289 289 290 290 290 290 290 290 289 289 289 289 289 289 289 289 289 289 289 289 289 289 289 288 288 288 288 288 287 286 286 286 286 286 285 285 285 282 282 284 284 283 286 289 290 291 291 291 292 292 293 292 293 296
292 292 293 293 293 293 293 292 292 293 294 294 294 294 294 294 293 293 292 291 291 291 290 289 289 289 289 289 289 289 289 288 289 289 290 290 290 290 289 289 289 289 288 288 288 288 288 288 289 289 288 288 288 288 288 288 288 288 287 287 286 286 285 284 283 284 284 282 282 282 283 284 284 283 286 288 288 289 290 291 291 291 292 293 294
Wind_Speed
7 13 12 9 5 10 12 12 11 11 11 12 13 11 12 11 11 11 11 11 11 10 10 10 9 10 10 10 10 10 10 10 10 10 10 9 10 10 11 12 11 12 12 12 13 13 13 14 14 14 14 14 14 14 14 14 14 14 13 13 13 13 12 12 11 10 9 10 11 12 12 12 13 13 13 14 14 14 13 12 10 10 10 11 14
13 12 11 10 6 10 11 12 12 11 11 11 12 12 12 11 10 10 11 11 10 10 10 9 9 10 10 10 11 10 10 10 9 10 11 9 10 10 10 11 11 12 13 13 13 13 13 13 13 13 13 13 13 14 13 13 13 13 13 12 12 12 11 11 11 10 8 7 6 9 10 12 12 13 13 14 14 14 13 13 12 9 8 14 15
12 13 13 12 7 10 11 12 13 13 11 12 11 11 12 12 11 10 10 10 10 10 10 9 10 10 9 10 10 10 9 10 9 9 9 10 9 9 9 10 10 11 12 12 12 13 12 12 13 13 13 13 13 13 12 13 12 12 11 11 11 11 11 10 10 9 8 7 7 9 12 11 12 12 13 14 14 14 13 13 12 11 10 15 14
12 10 12 11 8 7 12 12 13 13 12 11 11 11 12 12 11 11 11 10 10 10 9 9 9 10 10 9 9 9 9 9 9 9 9 9 9 9 9 10 11 12 12 12 13 12 13 13 13 13 12 12 12 12 11 11 11 10 10 9 9 9 9 8 8 7 7 6 4 6 3 7 9 11 12 13 13 14 12 13 13 14 15 15 16
10 10 12 12 11 7 12 12 13 14 13 13 12 11 12 12 12 12 11 11 10 10 9 8 8 9 9 9 9 9 8 8 9 8 8 9 9 8 9 10 11 11 11 11 11 12 12 12 13 13 12 12 11 11 10 10 9 9 9 8 8 7 7 6 6 5 6 7 7 5 5 7 7 11 11 12 13 13 13 13 14 14 12 14 16
8 8 10 12 11 10 9 11 14 14 13 13 13 12 12 11 11 11 10 11 11 10 9 9 8 8 8 8 8 8 8 8 7 8 8 8 9 9 8 9 9 9 10 10 10 11 12 12 13 13 13 12 11 11 10 9 9 9 8 8 7 7 6 5 5 5 7 9 10 2 6 6 6 7 11 10 12 12 12 13 14 14 14 14 14
6 7 8 11 10 10 6 10 13 13 14 14 14 13 12 11 11 10 10 10 9 9 9 9 8 8 8 8 7 7 7 7 7 7 7 7 8 8 9 9 9 9 9 9 10 12 12 12 12 13 12 12 11 11 10 10 9 9 9 8 8 7 7 6 5 6 8 7 2 4 5 7 7 5 10 10 11 11 10 11 13 14 14 14 14
4 5 7 9 8 11 8 9 11 13 14 14 13 13 13 12 11 10 10 9 8 7 8 7 7 8 7 8 7 7 6 6 6 7 7 7 7 8 9 9 9 9 9 10 10 12 12 12 12 12 12 11 11 11 10 10 10 9 9 9 8 7 7 6 5 7 9 5 4 4 4 7 6 5 10 10 10 12 10 11 13 13 14 14 13
5 6 6 7 9 13 9 8 11 12 12 12 13 12 13 13 11 11 11 9 9 8 6 7 7 7 7 6 7 6 6 6 6 6 7 7 7 8 8 9 8 8 9 10 10 12 11 11 11 11 11 12 11 11 11 10 10 9 9 9 8 7 6 4 3 6 8 2 3 5 6 5 6 6 9 10 11 12 14 11 11 12 13 12 12
6 6 6 5 10 11 7 6 10 10 12 12 11 11 11 10 11 11 9 10 9 9 7 7 7 6 7 6 5 5 5 5 5 6 6 7 7 7 7 7 7 7 8 8 9 10 10 10 10 11 11 12 11 11 11 11 11 10 10 9 8 7 4 2 5 7 3 2 4 5 4 6 6 7 9 10 12 14 13 11 10 9 9 11 12
6 6 5 6 11 10 7 5 7 8 9 10 11 12 11 12 11 11 10 8 9 9 8 7 6 6 6 7 5 4 6 4 4 5 6 6 6 7 7 6 6 9 10 10 8 7 9 10 10 11 11 11 11 11 11 11 11 11 11 11 9 7 5 5 6 3 4 4 4 4 2 6 6 7 8 11 11 12 10 10 10 11 11 11 12
5 4 5 9 8 9 7 5 5 9 9 9 11 9 9 9 9 10 10 10 9 8 8 7 5 6 5 6 5 4 6 4 4 4 5 6 6 7 7 7 7 8 10 11 11 10 11 10 11 11 12 11 11 11 10 10 11 11 11 11 10 8 9 9 7 4 3 4 5 4 5 9 9 8 10 9 10 11 10 11 10 11 11 12 12
4 3 3 6 7 6 6 4 3 7 8 7 8 9 9 9 10 10 9 9 8 7 7 6 6 4 4 4 3 3 6 5 4 4 5 6 5 6 7 8 7 8 10 10 10 10 11 11 11 12 11 11 10 10 10 10 10 11 11 10 8 8 8 10 3 4 5 3 3 3 3 4 7 5 8 10 11 10 10 10 10 10 10 11 11
3 3 2 2 6 7 6 5 4 3 6 7 8 8 8 9 7 9 8 8 8 7 6 7 6 3 4 3 4 2 4 6 4 1 3 4 6 6 6 7 7 9 9 10 10 11 11 12 12 12 11 11 10 11 10 10 10 10 10 10 9 9 9 8 6 4 3 4 4 5 3 5 7 9 8 9 10 10 10 10 9 9 10 10 10
5 3 3 1 6 6 6 4 5 5 3 5 5 7 8 9 9 8 8 7 7 6 7 6 5 5 3 2 2 2 3 4 6 4 4 1 5 6 6 7 7 9 10 10 11 11 11 11 11 11 11 11 11 11 10 10 10 10 11 10 10 9 10 5 2 4 3 2 3 2 4 7 9 7 9 10 10 10 9 8 8 9 9 9 10
5 4 2 1 1 5 6 5 2 4 5 2 4 5 7 8 7 8 8 5 5 7 7 6 5 4 6 3 1 1 2 5 5 4 3 3 3 4 6 7 7 8 9 10 11 11 11 11 11 11 11 11 11 11 10 10 10 10 10 10 10 10 12 8 2 1 3 3 2 2 4 7 13 8 8 9 9 8 8 8 8 8 9 9 9
5 3 3 2 2 2 3 6 6 4 3 4 2 4 5 5 5 5 7 7 6 6 6 6 6 6 6 7 6 6 4 4 4 4 5 3 4 5 2 7 7 8 11 12 12 11 10 10 10 10 10 10 11 11 10 11 11 11 11 10 10 9 11 10 3 4 4 4 4 4 9 7 11 6 7 7 7 7 8 8 8 8 8 8 7
5 5 5 3 1 1 2 3 7 7 8 6 4 3 4 5 4 3 3 6 5 5 5 6 6 5 5 6 5 5 5 6 6 5 5 4 5 5 4 5 7 9 10 12 12 11 10 10 8 8 9 9 10 10 10 10 11 11 11 11 9 9 9 10 4 4 4 2 3 4 8 12 12 8 7 7 7 7 7 8 7 7 6 6 6
6 5 4 4 6 4 2 3 4 4 7 7 7 7 6 5 7 5 3 5 5 5 7 7 6 7 6 5 6 6 7 7 7 7 7 7 5 4 5 6 5 8 10 11 12 11 10 9 8 7 8 8 9 9 9 10 10 9 10 9 9 8 10 8 5 4 3 4 4 8 7 13 12 9 8 8 8 7 7 7 7 6 6 6 6
5 6 5 5 3 3 4 3 3 4 5 6 6 7 8 7 7 7 6 3 3 3 7 7 7 7 7 7 7 6 6 5 9 7 8 8 7 5 9 5 4 8 9 10 11 11 10 9 7 7 8 7 7 8 8 8 8 8 8 7 7 10 5 5 5 4 4 5 4 8 12 15 12 9 8 7 7 7 6 7 6 5 5 5 3
3 5 6 5 4 4 3 4 4 4 5 5 5 6 7 9 7 7 8 7 6 3 4 7 6 6 6 6 6 4 6 5 7 5 8 7 8 5 8 7 6 9 10 9 10 11 10 9 8 7 7 6 7 7 8 7 6 6 6 5 9 5 5 5 5 5 5 4 6 7 14 15 12 10 8 7 7 7 7 6 6 6 5 6 5
4 3 5 6 5 4 4 2 3 4 4 4 3 4 4 6 7 7 7 7 6 6 6 6 6 5 4 5 5 5 5 5 4 8 6 8 7 8 8 8 8 9 8 10 10 10 10 10 8 7 6 5 6 4 5 5 5 3 2 6 4 5 4 5 4 4 4 5 6 8 12 13 13 10 9 7 7 7 7 5 6 6 6 5 5
5 4 4 6 6 5 5 3 2 3 4 4 3 3 5 4 5 6 5 7 7 8 7 7 7 6 6 5 5 4 4 4 2 3 3 5 8 8 5 8 6 8 8 8 8 8 7 9 8 7 5 4 3 3 4 2 3 5 4 2 4 4 4 4 4 4 4 5 5 9 11 12 12 11 10 8 5 6 6 6 5 4 5 6 4
5 4 5 4 6 5 5 4 3 1 3 4 3 3 3 4 4 4 5 5 6 6 7 6 5 5 5 5 4 3 4 2 8 9 7 5 6 7 4 4 9 8 8 6 5 6 5 7 7 5 6 1 3 3 4 3 3 3 3 4 3 3 3 4 3 3 4 4 5 9 10 10 11 11 12 12 12 9 4 6 6 5 5 6 6
5 4 4 5 6 6 6 4 3 3 4 3 3 4 2 3 3 3 4 4 3 4 4 4 5 4 4 5 4 3 3 4 4 4 5 4 5 6 5 4 6 6 8 5 5 4 5 4 4 6 3 3 3 4 4 4 5 4 4 4 3 3 2 2 2 3 2 3 5 7 8 9 9 9 11 13 13 14 13 6 6 6 3 4 4
5 5 6 6 7 7 6 5 5 3 5 4 4 2 2 3 2 2 2 2 3 2 2 1 3 3 3 3 3 3 3 4 2 2 3 2 2 2 4 4 4 4 6 4 4 3 3 2 1 1 3 4 3 4 4 4 4 4 4 4 4 3 2 2 2 2 2 1 5 7 6 8 8 8 8 11 11 13 14 14 7 6 4 3 3
6 7 6 6 7 8 8 4 4 3 5 4 4 3 3 1 2 2 1 1 4 2 3 3 2 3 2 3 3 4 3 3 2 3 4 3 2 2 2 1 1 2 4 1 2 2 2 1 1 1 3 3 3 2 3 3 3 4 4 4 4 4 3 3 3 3 2 2 4 6 5 7 8 8 8 8 10 11 13 14 14 9 7 4 5
6 8 7 7 7 8 8 4 1 3 4 4 3 4 3 1 2 3 1 5 4 5 7 6 7 5 7 5 5 3 3 4 3 2 4 2 2 1 2 1 0 1 2 2 2 3 2 2 3 3 2 2 3 2 2 2 2 3 4 3 3 3 3 2 3 3 3 2 1 5 5 5 6 8 8 8 9 10 10 12 14 14 13 8 6
8 8 7 7 8 8 7 4 1 5 4 5 5 4 3 4 7 8 9 9 8 7 6 7 7 6 7 7 6 4 1 3 3 2 1 3 4 4 3 3 2 2 1 1 2 3 3 5 6 6 4 3 2 2 1 2 1 3 3 3 2 2 1 2 2 2 1 2 3 4 4 2 4 6 7 8 8 9 10 10 11 13 13 12 11
8 7 7 7 7 9 6 7 2 2 4 3 5 7 8 9 8 8 7 8 8 7 8 8 8 7 7 8 8 6 6 4 6 7 7 5 5 6 7 6 5 5 5 6 5 4 3 3 5 5 5 3 3 4 4 2 2 2 3 2 2 2 1 1 1 1 1 1 2 3 5 3 1 3 5 6 7 8 10 11 11 11 13 13 12
7 8 8 7 7 8 8 8 9 11 10 9 8 8 8 9 8 7 7 8 7 7 8 8 7 8 8 9 9 8 6 7 6 7 6 6 6 5 6 5 6 5 4 4 4 3 3 4 3 3 4 5 4 4 4 3 2 2 2 2 2 0 2 1 1 1 1 1 1 1 4 6 4 2 3 4 6 7 8 10 11 11 11 12 13
7 8 7 7 7 8 8 8 8 8 9 9 8 8 8 8 9 7 7 7 7 7 7 7 8 8 9 9 9 9 8 7 7 7 7 7 7 7 6 6 5 5 4 3 3 3 3 4 4 4 3 2 3 2 3 2 3 3 3 2 2 2 1 0 1 1 1 1 1 1 1 3 8 5 4 2 4 5 7 8 9 11 12 12 11
5 6 7 7 8 7 7 7 7 9 10 10 9 8 7 8 8 8 6 6 7 7 8 8 7 7 7 8 9 9 7 7 7 8 7 7 7 7 6 6 6 5 4 5 5 4 4 3 3 3 3 2 4 4 3 3 3 3 2 1 2 2 2 2 2 1 1 1 1 1 1 1 1 7 6 3 2 2 4 5 8 9 10 11 12
5 5 7 8 7 4 4 5 8 10 9 9 8 8 8 8 7 7 8 8 7 8 9 8 8 7 8 10 9 9 7 7 7 8 7 7 7 7 7 6 5 5 5 5 4 3 4 3 3 4 3 3 2 1 0 1 2 3 4 2 3 2 2 3 3 3 2 1 1 0 1 1 1 1 1 6 5 3 1 4 6 7 8 9 9
5 6 7 7 7 6 5 6 7 9 9 10 11 10 9 8 8 8 9 9 8 8 8 8 8 8 8 9 10 9 10 9 9 7 7 6 7 6 7 6 6 6 5 5 3 3 4 4 3 3 3 2 2 1 1 0 1 2 3 3 3 2 3 3 2 2 3 2 2 1 1 1 2 1 2 3 4 4 3 4 5 7 7 8 9
6 6 5 6 8 8 8 9 10 11 10 9 9 9 9 8 8 9 9 9 8 9 8 8 8 8 8 8 10 9 10 10 10 8 8 8 7 8 7 7 7 5 5 6 6 6 6 6 7 6 4 4 4 4 3 3 3 4 4 3 3 3 3 3 2 2 2 3 3 3 3 3 3 3 3 1 3 3 4 2 4 6 7 8 9
5 5 5 5 7 7 7 9 9 10 11 11 11 11 10 11 11 10 9 9 9 8 7 7 7 8 8 8 9 8 10 10 10 9 8 8 8 8 7 8 7 7 7 6 6 5 5 5 6 6 5 4 4 4 3 3 2 2 3 3 3 3 3 2 2 2 1 1 2 3 3 3 2 3 3 4 3 4 3 1 2 4 5 6 7
3 4 4 5 6 6 7 8 8 8 8 9 9 9 10 10 9 9 9 10 10 9 8 8 8 8 8 8 9 8 9 9 9 8 8 8 8 7 7 7 6 6 6 6 6 6 6 5 6 6 6 6 5 6 6 4 3 3 3 3 3 3 2 2 1 1 1 3 2 3 3 3 3 3 4 3 3 3 4 4 5 6 6 5 6
3 4 5 5 5 7 7 8 8 8 10 10 11 10 10 10 9 9 10 10 10 9 8 9 8 9 9 9 10 9 9 9 9 8 7 7 7 8 8 8 7 7 7 6 6 6 5 5 5 4 4 6 6 6 7 6 5 4 3 4 3 3 1 1 1 2 2 2 2 2 1 3 2 3 4 3 3 3 3 3 3 4 4 2 5
3 4 5 5 6 7 6 6 7 7 7 7 7 7 7 7 8 8 10 10 9 9 9 9 9 9 10 10 10 10 10 10 10 9 9 8 8 8 9 9 8 8 8 8 8 8 8 6 7 8 7 7 8 8 8 8 6 6 4 4 4 2 0 2 3 2 2 2 2 2 3 2 3 3 4 3 3 3 3 3 3 4 4 6 8
4 5 5 5 5 5 5 6 4 4 5 6 6 6 7 7 8 9 9 8 8 9 9 9 9 9 10 10 11 10 10 10 10 10 10 9 9 9 9 9 9 9 8 9 9 10 9 8 5 7 8 8 8 9 10 10 5 6 6 4 2 2 4 2 4 4 5 3 3 2 2 3 4 4 4 3 3 3 3 4 4 4 5 4 5
4 5 5 5 5 5 5 5 4 5 5 5 5 6 5 6 7 8 8 7 7 7 8 8 8 9 10 10 9 10 10 11 10 10 10 10 9 9 9 9 9 8 9 9 10 10 11 11 9 6 7 8 8 10 10 10 7 8 7 6 1 3 6 4 6 9 6 4 2 3 4 4 4 4 5 5 4 6 5 5 4 5 6 6 6
4 5 4 4 4 4 4 4 4 5 5 6 6 7 7 7 8 9 9 9 8 8 9 9 9 10 10 10 10 10 10 10 10 10 9 10 10 9 9 8 9 8 8 10 10 11 10 11 11 9 6 7 7 8 11 11 7 9 6 4 3 2 3 3 9 11 5 5 5 5 5 5 6 5 6 6 5 6 5 5 5 5 5 6 6
4 4 4 4 4 4 4 5 6 6 6 7 8 10 10 11 11 10 10 10 9 9 10 10 10 10 11 10 10 10 10 10 11 10 9 10 10 9 8 8 9 9 8 9 10 10 10 10 10 11 8 7 7 7 9 11 10 9 7 6 5 4 4 6 12 8 6 10 6 8 7 5 5 6 6 7 6 6 5 5 6 6 6 6 6
4 4 3 3 4 5 6 6 7 7 7 8 9 10 10 11 11 11 11 11 10 9 9 9 9 9 9 10 10 10 10 10 10 10 10 10 10 9 9 9 9 9 8 9 9 9 9 9 10 9 10 8 7 7 7 9 11 10 7 6 4 6 5 7 10 3 9 8 7 9 7 6 6 7 8 6 5 6 6 5 6 6 7 7 6
4 3 3 4 5 6 6 7 7 7 8 9 8 7 7 8 8 8 8 8 8 7 8 8 8 8 9 8 10 10 10 10 10 10 10 9 10 10 9 9 9 8 8 8 8 8 9 10 9 8 9 10 7 7 7 7 8 9 9 7 5 4 6 8 7 5 8 3 5 5 6 6 8 8 7 7 5 7 5 5 7 7 7 7 6
4 3 3 4 5 6 6 6 6 6 5 5 5 5 5 5 7 8 8 8 10 8 8 8 8 7 7 9 8 9 10 10 10 9 9 9 9 9 9 9 8 8 8 7 8 8 7 8 7 8 8 7 8 7 8 7 5 8 7 7 6 5 5 6 6 8 9 3 3 4 2 5 7 7 7 6 7 8 5 6 8 9 7 7 6
4 3 4 4 5 6 6 6 6 6 4 4 4 4 6 7 9 10 9 9 9 10 9 8 8 7 8 9 8 8 9 9 9 9 9 9 9 9 9 8 8 8 7 7 7 7 6 7 8 8 7 7 8 7 6 6 6 6 7 6 6 5 6 4 5 6 7 11 11 4 0 5 5 5 4 5 7 7 6 7 8 8 6 7 6
4 4 4 4 4 5 5 6 6 6 5 6 6 7 7 8 8 9 10 8 9 8 8 7 7 7 9 8 8 8 8 9 9 9 9 9 8 8 8 8 8 7 6 6 6 7 8 8 8 8 7 6 6 6 5 5 6 6 6 6 5 5 6 5 5 5 6 9 9 9 11 7 4 3 2 5 5 5 6 7 7 8 6 7 5
4 4 4 4 4 5 6 7 7 6 6 7 8 8 8 7 8 9 11 10 8 8 7 8 7 7 8 8 7 7 6 7 7 8 8 8 8 8 7 8 7 7 6 6 6 6 7 6 7 7 7 7 6 6 6 5 4 5 5 5 5 5 5 5 5 7 6 5 9 11 10 13 14 7 6 4 5 7 7 7 6 6 7 7 5
4 4 4 4 5 5 7 8 7 6 7 7 8 8 8 8 8 9 10 11 10 9 8 8 7 7 7 7 7 6 6 6 6 7 7 7 7 7 7 7 6 6 6 6 6 6 5 6 5 6 7 7 6 5 5 6 5 5 5 5 5 5 5 6 6 6 6 7 8 9 9 9 10 13 8 9 9 7 7 6 6 6 6 6 5
Wind_Direction
153 149 147 137 156 160 152 151 148 145 143 141 135 131 124 124 119 116 117 113 113 113 110 106 107 109 110 105 99 94 92 83 74 69 70 84 92 80 83 86 91 89 83 76 71 68 66 62 55 50 48 47 45 42 39 36 36 37 39 41 43 44 46 48 49 44 41 55 63 63 62 65 59 59 59 59 54 48 39 31 41 55 55 56 57
151 150 141 151 163 159 157 153 152 150 150 142 139 136 131 127 124 122 122 122 120 117 119 117 117 113 107 106 102 96 89 82 73 70 68 78 91 90 88 85 85 82 81 79 77 72 67 62 57 49 43 42 41 40 39 36 33 32 34 37 40 43 43 43 41 36 34 39 63 70 61 63 63 60 58 57 57 52 46 44 51 59 55 59 57
147 156 142 154 161 160 161 159 158 154 156 148 142 137 132 130 129 127 124 125 125 126 124 124 119 114 116 111 106 103 96 85 79 71 69 78 98 96 97 95 91 89 87 85 81 76 68 61 57 50 44 38 38 39 38 35 32 30 30 32 33 37 40 42 38 29 19 17 11 98 93 70 60 62 59 57 55 52 48 54 52 55 57 57 58
149 159 147 142 161 158 161 163 161 159 157 151 142 140 137 135 133 133 130 129 130 125 127 125 123 122 118 111 108 103 98 88 81 74 75 78 95 103 101 96 90 85 81 75 70 67 66 62 57 53 48 41 38 37 38 37 34 29 28 30 31 32 35 37 35 20 358 347 342 290 56 80 71 66 66 62 57 52 46 48 52 58 57 54 54
151 157 145 150 163 156 165 159 162 158 157 150 147 144 141 139 139 138 138 135 132 129 127 126 124 113 113 115 112 108 103 98 89 83 79 80 89 102 101 95 89 81 80 80 78 70 68 64 60 55 49 42 37 35 35 35 36 34 30 28 30 29 34 37 27 10 340 315 314 325 73 76 81 69 70 70 64 56 51 48 46 47 52 57 53
150 150 153 162 163 154 158 161 163 159 158 151 150 150 147 143 143 141 140 139 137 137 135 133 126 123 118 118 118 112 109 103 98 91 86 85 91 101 98 93 85 84 85 81 74 69 68 63 60 53 48 42 35 32 31 32 33 35 34 31 30 31 32 34 28 357 319 314 295 240 66 76 71 69 63 64 69 63 58 51 47 45 42 45 52
144 151 148 162 165 151 150 156 161 162 157 153 155 153 150 148 145 144 141 138 136 135 138 136 133 129 130 124 123 120 115 107 103 97 89 87 90 96 98 96 89 87 81 74 71 72 66 61 54 48 45 40 33 29 29 32 32 33 36 37 37 38 39 36 16 336 300 293 336 24 65 53 70 76 71 60 63 61 59 62 55 46 42 38 41
116 163 155 157 172 133 150 161 164 163 160 156 157 155 152 152 150 147 142 141 135 134 138 136 134 134 133 131 129 126 117 111 104 96 96 93 94 99 100 94 90 85 80 76 74 75 66 55 49 46 40 37 30 28 29 32 34 33 36 40 43 40 38 34 357 306 295 289 39 35 14 66 68 75 70 64 56 47 58 67 64 53 45 42 34
145 160 158 154 116 126 131 163 165 163 160 160 158 157 155 158 154 150 147 144 142 138 141 141 141 139 138 133 136 129 125 118 111 98 94 96 100 100 101 99 96 90 74 73 73 74 67 55 44 44 40 35 30 28 29 30 34 37 38 41 44 44 37 17 317 292 273 23 33 43 16 27 81 75 65 65 59 52 45 40 48 49 49 43 39
151 153 152 167 125 106 116 153 166 168 159 164 156 153 156 157 155 152 151 147 148 144 151 150 146 148 143 148 142 138 130 117 106 102 96 94 96 103 104 106 99 73 73 75 73 72 71 50 48 43 41 38 33 30 30 31 33 34 37 38 39 39 33 352 294 279 307 74 73 64 23 319 70 63 67 67 66 60 52 46 53 48 48 46 45
132 153 153 121 115 108 106 151 162 165 169 163 159 159 161 164 155 151 153 150 147 149 153 152 152 154 153 150 158 145 127 116 105 106 102 104 109 107 104 87 78 75 62 67 76 72 54 55 53 47 43 40 37 33 33 33 33 33 32 34 30 18 11 332 309 270 22 21 47 66 61 268 85 66 65 67 65 67 62 57 51 46 43 42 42
111 114 159 90 102 98 90 83 165 167 163 175 164 163 166 165 156 155 156 153 155 148 149 149 159 154 159 156 159 158 121 139 124 120 120 114 119 119 107 94 82 72 68 65 61 59 58 57 50 46 44 40 37 37 36 35 35 35 34 32 31 13 350 338 307 53 36 36 48 1 23 44 55 70 70 66 61 58 52 49 43 42 42 45 43
59 77 152 124 130 100 78 77 96 167 168 173 173 171 165 174 166 161 157 152 157 149 145 152 149 169 156 158 152 151 141 145 146 136 134 130 130 119 109 94 81 68 65 63 64 61 64 58 50 45 42 38 36 37 38 38 38 38 35 34 25 1 351 324 336 36 50 26 65 49 47 80 72 30 58 50 47 46 42 42 39 38 41 39 40
56 70 103 120 86 95 69 35 49 123 158 174 181 173 173 160 185 166 162 159 155 151 144 147 149 165 155 143 134 124 157 148 126 160 96 126 122 120 102 85 81 77 68 63 60 60 61 51 45 42 39 36 35 35 33 34 36 38 37 34 23 359 353 309 13 49 38 55 26 28 21 57 48 44 37 38 39 34 31 37 42 44 39 34 36
46 27 63 316 129 142 94 49 18 40 120 166 168 189 183 175 179 173 169 164 160 150 143 142 148 144 140 165 174 154 155 153 146 146 112 46 122 128 106 90 80 74 64 61 62 69 60 52 47 42 36 35 35 36 32 30 31 32 34 29 16 355 350 359 43 65 61 57 95 91 49 56 18 45 42 37 31 31 26 23 32 42 35 27 36
37 43 23 65 59 140 177 137 73 41 43 88 184 176 180 193 190 171 167 162 161 148 139 138 134 144 132 117 123 16 83 143 140 149 120 142 127 140 116 95 82 66 61 69 79 75 64 56 52 46 38 34 34 33 32 29 28 31 32 27 16 360 346 342 31 3 65 65 62 56 69 59 12 32 30 25 25 26 25 23 24 25 24 27 35
55 76 102 95 354 330 189 180 176 110 105 54 85 176 188 185 205 182 170 164 157 157 148 132 130 127 112 103 94 89 77 96 117 134 133 132 135 94 85 104 85 83 83 89 87 76 71 67 60 51 45 39 34 34 34 29 27 27 26 22 16 359 342 336 8 33 43 33 9 353 57 35 358 19 23 30 24 18 20 23 22 14 18 35 38
58 55 51 41 121 332 294 245 152 191 216 161 134 130 181 172 174 215 209 143 150 157 154 137 120 111 113 108 112 110 110 108 114 137 135 132 95 72 51 93 95 100 102 101 99 94 88 83 72 62 55 48 43 39 37 35 29 26 21 15 2 349 328 322 359 39 42 325 36 35 46 14 359 358 358 0 10 17 15 10 15 13 24 27 30
60 60 62 35 22 359 310 297 284 238 214 221 222 167 170 173 158 179 207 149 151 155 147 135 130 124 114 109 119 131 122 129 122 132 124 115 99 143 80 84 108 115 111 109 107 106 104 97 91 85 73 61 52 48 47 41 36 28 19 8 344 332 316 293 25 8 356 32 8 51 21 7 360 357 357 1 8 11 5 0 19 12 12 17 34
55 43 50 59 32 7 2 319 274 275 239 228 223 209 159 155 156 156 167 198 222 183 151 148 141 140 136 140 137 133 140 142 143 136 142 143 160 208 128 128 142 125 121 117 115 115 114 112 108 104 93 82 73 71 58 51 44 32 17 350 328 311 309 20 358 19 1 38 354 43 11 5 1 357 358 5 7 6 9 7 2 8 8 359 3
53 47 34 24 30 32 15 349 327 289 279 262 238 242 144 157 162 153 157 169 187 211 243 157 154 136 144 143 157 213 206 163 176 158 153 164 167 141 141 139 154 133 133 129 126 127 127 126 127 111 107 103 102 92 81 66 56 35 10 324 313 304 27 8 1 22 14 21 32 31 10 7 1 357 359 6 9 11 9 6 3 8 7 3 35
38 31 34 19 9 16 23 344 333 311 280 272 267 247 161 187 223 201 195 178 166 181 209 204 191 186 154 162 221 219 221 210 192 144 175 147 144 157 145 134 133 138 141 138 136 140 141 138 127 127 115 127 171 155 113 109 91 69 338 306 297 25 17 7 6 19 24 24 39 19 12 5 7 358 354 5 3 17 8 7 6 4 9 2 12
28 9 21 16 4 349 358 349 326 338 311 277 256 247 244 234 221 219 203 196 189 189 213 223 224 217 192 217 216 219 220 233 162 106 102 117 148 162 169 139 146 148 150 145 147 147 152 133 129 129 144 176 204 77 75 57 122 179 230 279 31 24 6 8 7 18 29 31 45 17 11 4 360 359 352 353 12 13 5 354 357 357 2 8 343
16 3 8 5 1 348 342 333 336 250 300 250 249 232 231 226 233 220 215 209 208 207 216 221 227 214 212 219 220 219 223 200 97 111 123 158 145 154 163 168 156 159 151 146 139 156 137 113 125 152 180 195 53 58 66 69 46 30 37 16 27 18 12 10 20 9 9 52 51 26 13 6 359 352 350 349 354 355 4 350 340 354 3 353 341
13 345 9 3 4 348 338 326 324 239 210 226 241 225 213 221 216 223 226 207 209 226 244 247 237 230 238 240 250 248 241 231 174 165 207 206 162 176 177 184 177 174 166 188 176 154 189 148 157 217 30 59 49 45 47 55 47 31 41 27 8 17 11 21 19 15 11 34 68 38 15 9 3 355 344 341 347 350 351 343 332 328 341 338 354
9 10 358 359 1 353 340 321 298 248 214 195 227 209 289 198 188 202 223 254 183 191 256 339 275 263 266 300 271 242 253 251 268 276 252 222 215 207 198 210 194 195 171 230 210 179 228 178 176 341 49 46 62 50 42 43 59 47 42 29 15 2 10 14 11 9 9 3 77 51 19 10 5 3 350 336 338 342 345 355 344 312 305 262 271
6 8 360 360 359 353 338 325 297 267 216 209 201 221 217 199 173 41 288 126 13 61 39 1 349 311 336 357 329 297 284 294 326 249 234 236 213 235 210 196 183 171 209 236 26 299 280 328 278 2 61 78 72 76 62 51 62 66 58 41 22 7 8 9 7 5 347 351 95 69 34 11 5 2 358 339 331 333 339 346 347 339 311 247 255
12 9 8 2 358 352 332 342 229 243 186 174 193 187 193 140 83 146 198 36 31 36 47 27 41 22 29 46 19 350 335 320 300 323 318 284 217 164 51 44 88 315 265 218 187 240 257 332 354 53 91 96 88 47 81 71 96 82 80 65 38 22 21 2 11 1 341 344 64 92 56 3 0 358 355 354 332 328 333 334 338 349 354 325 268
13 9 356 357 352 340 347 21 92 229 171 161 176 159 148 71 46 36 51 52 56 56 50 44 40 33 38 34 24 32 328 231 266 5 359 330 44 54 33 7 28 78 137 268 316 316 0 20 9 3 348 9 74 102 92 74 55 80 98 101 85 59 55 18 8 338 343 335 337 111 90 30 352 350 353 349 346 337 326 328 332 342 344 344 337
10 359 353 349 343 346 11 347 31 176 120 78 55 48 50 63 61 54 57 56 58 55 53 55 45 35 30 29 34 34 40 30 44 52 51 48 48 36 50 43 50 42 37 53 42 26 24 32 22 4 347 1 21 52 332 69 34 43 40 91 123 117 111 125 303 322 330 326 320 124 139 139 289 330 341 337 347 344 341 329 331 329 334 335 338
4 0 353 347 345 5 25 21 28 30 52 60 55 65 66 65 62 56 53 56 50 50 53 48 43 38 27 27 28 29 37 47 56 57 62 55 50 47 43 39 43 37 45 69 65 65 61 51 43 39 23 3 9 25 6 346 5 53 37 9 18 163 142 168 194 197 250 255 288 283 162 167 185 209 297 332 342 348 343 342 336 331 329 328 338
4 355 346 337 11 27 38 38 38 52 62 60 64 69 62 62 64 60 51 49 48 50 52 54 47 39 35 36 31 27 25 39 48 48 48 50 53 50 45 50 50 38 37 53 70 60 74 72 62 64 70 19 327 48 19 335 355 19 4 360 335 324 306 297 217 197 199 236 266 249 271 195 180 198 188 263 339 346 345 348 342 340 334 337 329
359 349 345 356 23 29 48 37 40 59 66 69 66 68 68 68 71 65 57 51 49 52 54 49 47 45 39 38 40 35 26 36 45 51 52 54 54 52 47 42 42 46 48 54 64 55 65 80 81 73 50 48 36 23 355 352 348 329 308 57 315 300 310 300 294 242 194 211 226 246 286 285 284 184 184 197 223 298 1 355 357 345 343 341 335
351 352 0 17 26 30 36 40 60 60 63 70 71 70 64 63 64 66 57 54 48 50 51 48 39 37 42 37 36 36 37 39 46 50 47 50 52 50 47 45 42 43 46 49 56 62 71 65 75 79 76 84 111 94 341 4 346 321 313 351 289 300 306 296 304 327 321 287 284 254 278 335 338 351 135 203 189 177 97 21 358 354 349 339 332
5 3 8 4 39 49 42 58 63 74 68 71 73 75 73 71 71 68 61 60 59 57 51 47 43 40 42 39 36 33 30 27 33 49 54 56 57 53 46 39 34 27 32 30 44 64 56 47 32 81 89 66 80 77 29 234 245 262 279 283 290 296 297 296 300 309 309 329 311 338 345 348 5 8 7 340 170 152 101 39 3 350 338 331 325
13 359 355 16 54 56 57 62 62 71 69 72 76 76 75 74 71 66 68 65 66 62 55 53 48 47 44 42 32 39 41 39 38 44 53 48 49 49 41 33 32 40 42 32 25 36 37 39 33 17 55 46 28 24 6 351 342 324 316 296 294 303 304 302 305 298 360 339 345 355 350 5 8 12 320 326 351 118 112 72 356 334 325 320 321
12 3 358 30 56 56 59 67 67 75 77 74 72 71 72 71 67 65 65 64 65 62 55 55 54 50 45 40 30 29 38 40 41 43 52 52 53 52 43 41 35 36 35 32 31 24 36 49 43 41 40 43 35 17 358 353 323 295 298 303 306 308 290 320 324 360 352 1 4 8 357 13 19 356 12 5 9 350 119 100 299 299 296 299 317
18 16 21 40 55 61 62 64 71 70 75 81 79 78 76 76 72 67 64 63 61 58 52 48 49 45 41 37 32 33 32 36 40 49 58 55 54 54 50 40 38 42 45 45 40 33 34 42 53 43 35 30 25 10 357 342 322 294 291 265 248 249 271 271 9 356 19 28 23 7 8 11 30 18 18 15 12 20 353 345 312 283 261 266 306
25 41 55 56 74 79 84 83 83 82 83 88 89 87 85 79 77 73 66 63 58 53 50 53 47 43 40 36 34 35 31 33 38 43 54 57 55 53 48 37 36 38 37 36 41 37 42 43 41 47 55 42 15 7 349 326 296 270 264 270 251 241 267 58 25 56 50 24 10 360 35 33 29 36 25 11 20 4 1 353 353 354 357 321 307
40 59 66 62 70 73 78 79 78 82 86 86 82 84 80 79 80 75 68 62 60 57 52 53 49 45 39 39 37 37 34 32 34 41 48 50 52 49 49 42 39 40 39 36 30 25 17 26 44 31 34 40 26 5 354 336 309 303 282 275 255 230 135 72 84 84 9 3 18 10 39 25 39 34 25 4 3 3 357 359 356 355 345 343 331
63 74 71 62 59 72 81 78 68 84 103 103 95 92 93 90 79 77 80 73 71 69 64 58 54 49 43 44 42 41 36 34 33 38 41 46 48 46 44 42 43 40 39 36 30 27 23 17 17 53 34 36 25 8 358 331 340 342 332 297 281 164 90 110 107 30 353 350 23 37 27 31 40 23 8 355 357 15 358 351 350 345 338 333 324
73 79 75 70 74 77 79 80 73 68 71 78 86 83 79 90 100 94 94 84 79 74 72 63 64 59 53 51 50 46 45 43 36 37 40 42 45 45 43 40 40 42 41 39 35 29 28 28 14 42 53 41 37 14 9 355 13 350 329 330 174 104 117 113 33 359 351 46 31 27 30 39 34 18 5 358 12 359 350 347 350 343 334 329 326
85 80 80 91 88 89 82 78 72 76 75 82 87 88 86 86 96 98 96 93 80 80 80 79 73 69 61 54 51 50 48 47 45 42 41 40 44 46 44 42 40 39 40 36 32 31 26 26 26 18 32 48 50 31 22 20 5 339 326 323 25 328 126 129 16 349 44 31 0 24 30 8 16 24 5 357 357 352 347 354 350 339 334 327 322
104 98 93 89 86 84 82 80 75 73 76 71 83 89 89 91 88 96 95 94 99 92 86 78 73 69 62 56 51 49 48 49 44 46 47 45 43 46 47 43 42 40 42 42 35 32 28 24 24 23 16 37 29 38 34 27 22 6 17 347 317 342 354 17 354 331 42 1 21 23 2 358 9 19 4 351 349 347 344 352 351 343 333 325 319
98 86 75 89 89 90 88 87 84 85 89 96 97 101 103 98 99 102 104 104 97 91 85 74 67 64 63 52 47 48 49 49 45 44 46 46 44 43 45 45 43 39 42 44 42 34 28 27 23 26 24 21 31 25 37 37 31 25 24 4 3 8 13 330 333 289 34 351 20 9 348 350 14 8 353 336 342 349 342 347 351 337 331 325 319
106 80 74 91 102 102 100 97 97 96 103 107 112 114 116 123 127 121 114 105 93 80 73 78 73 65 65 64 56 51 53 51 50 46 45 45 45 44 44 45 44 41 39 43 42 38 30 26 22 23 23 16 21 29 25 27 44 30 30 43 28 4 331 328 337 316 339 319 14 347 336 8 11 353 335 318 357 346 333 352 341 330 324 319 316
109 100 94 92 98 100 101 103 103 101 98 111 127 136 130 114 103 98 98 100 101 88 90 87 87 84 78 70 65 56 52 54 49 46 45 44 45 43 43 45 45 44 40 42 39 35 32 25 20 26 26 21 16 36 28 13 22 35 22 23 16 1 336 333 342 325 321 331 325 323 343 24 353 335 323 319 355 329 330 354 334 320 319 313 311
117 108 95 96 99 102 102 103 102 106 99 102 97 99 102 97 98 97 95 97 99 105 99 93 91 90 86 79 75 66 57 55 54 49 45 44 44 44 42 44 46 43 42 45 39 29 28 27 26 24 28 31 26 25 24 20 22 12 10 11 6 357 341 350 351 343 321 317 325 320 7 352 330 321 306 331 326 311 322 332 323 310 308 305 304
113 107 105 98 96 100 103 103 106 105 98 95 97 96 100 104 104 106 102 98 102 103 104 101 98 95 91 87 82 77 70 61 55 52 47 46 45 45 43 46 44 41 40 42 37 35 33 29 24 25 23 28 34 24 22 19 19 14 0 4 6 360 347 356 349 357 334 318 310 328 323 322 306 245 312 313 296 303 311 308 303 294 303 301 298
95 104 107 111 112 116 114 113 106 104 103 99 98 99 101 103 104 107 111 112 112 109 107 106 101 97 93 89 82 77 72 67 58 51 49 47 45 44 45 44 43 40 38 36 36 36 34 33 31 30 23 25 29 30 28 10 11 19 3 359 3 358 356 354 357 347 326 305 307 318 324 326 326 329 327 302 309 305 297 293 289 289 298 292 298
118 131 125 127 127 125 125 117 111 109 108 104 105 102 101 105 109 112 112 113 113 115 115 110 107 101 95 91 84 79 72 68 64 56 49 46 49 46 46 44 41 40 37 34 29 27 29 28 27 32 32 25 19 19 25 17 1 14 9 9 5 5 352 349 343 340 328 319 315 309 313 312 310 312 320 318 306 287 277 273 269 277 284 284 299